TimeMST,TemperatureF,Dew PointF,Humidity,Sea Level PressureIn,VisibilityMPH,Wind Direction,Wind SpeedMPH,Gust SpeedMPH,PrecipitationIn,Events,Conditions,WindDirDegrees,DateUTC
12:15 AM,37.4,35.6,93,30.03,10.0,Calm,Calm,-,N/A,,Overcast,0,2012-11-18 07:15:00
12:35 AM,37.4,35.6,93,30.04,10.0,Calm,Calm,-,N/A,,Overcast,0,2012-11-18 07:35:00
12:55 AM,37.4,35.6,93,30.03,10.0,Calm,Calm,-,N/A,,Overcast,0,2012-11-18 07:55:00
1:15 AM,37.4,35.6,93,30.03,10.0,ESE,4.6,-,N/A,,Overcast,110,2012-11-18 08:15:00
1:55 AM,37.4,35.6,93,30.02,10.0,ESE,6.9,-,N/A,,Overcast,110,2012-11-18 08:55:00
2:15 AM,37.4,35.6,93,30.02,10.0,East,4.6,-,N/A,,Overcast,90,2012-11-18 09:15:00
2:35 AM,37.4,35.6,93,30.02,10.0,Calm,Calm,-,N/A,,Overcast,0,2012-11-18 09:35:00
2:55 AM,35.6,35.6,100,30.02,10.0,Calm,Calm,-,N/A,,Overcast,0,2012-11-18 09:55:00
3:15 AM,35.6,35.6,100,30.01,10.0,Calm,Calm,-,N/A,,Overcast,0,2012-11-18 10:15:00
3:35 AM,35.6,35.6,100,30.01,10.0,NE,4.6,-,N/A,,Overcast,50,2012-11-18 10:35:00
3:55 AM,35.6,35.6,100,30.00,10.0,Calm,Calm,-,N/A,,Overcast,0,2012-11-18 10:55:00
4:15 AM,35.6,35.6,100,30.00,10.0,ESE,5.8,-,N/A,,Overcast,110,2012-11-18 11:15:00
4:35 AM,37.4,35.6,93,30.01,10.0,Calm,Calm,-,N/A,,Overcast,0,2012-11-18 11:35:00
4:55 AM,37.4,35.6,93,30.01,10.0,Calm,Calm,-,N/A,,Overcast,0,2012-11-18 11:55:00
5:15 AM,37.4,35.6,93,30.01,10.0,East,4.6,-,N/A,,Overcast,100,2012-11-18 12:15:00
5:35 AM,37.4,35.6,93,30.01,10.0,Calm,Calm,-,N/A,,Overcast,0,2012-11-18 12:35:00
5:55 AM,37.4,35.6,93,30.01,10.0,Calm,Calm,-,N/A,,Overcast,0,2012-11-18 12:55:00
6:15 AM,37.4,35.6,93,30.01,10.0,Calm,Calm,-,N/A,,Overcast,0,2012-11-18 13:15:00
6:35 AM,37.4,35.6,93,30.01,10.0,Calm,Calm,-,N/A,,Overcast,0,2012-11-18 13:35:00
6:55 AM,37.4,35.6,93,30.01,10.0,Calm,Calm,-,N/A,,Overcast,0,2012-11-18 13:55:00
7:15 AM,37.4,35.6,93,30.02,10.0,ESE,4.6,-,N/A,,Overcast,110,2012-11-18 14:15:00
7:35 AM,37.4,35.6,93,30.02,10.0,East,3.5,-,N/A,,Overcast,100,2012-11-18 14:35:00
7:55 AM,39.2,37.4,93,30.03,10.0,ENE,3.5,-,N/A,,Overcast,70,2012-11-18 14:55:00
8:15 AM,39.2,37.4,93,30.03,5.0,East,6.9,-,N/A,,Overcast,90,2012-11-18 15:15:00
8:35 AM,41.0,37.4,87,30.04,7.0,SSE,5.8,-,N/A,,Overcast,150,2012-11-18 15:35:00
8:55 AM,42.8,37.4,81,30.05,10.0,SSE,5.8,-,N/A,,Overcast,150,2012-11-18 15:55:00
9:15 AM,42.8,37.4,81,30.05,10.0,South,5.8,-,N/A,,Overcast,170,2012-11-18 16:15:00
9:35 AM,44.6,35.6,71,30.05,10.0,SSE,11.5,-,N/A,,Overcast,160,2012-11-18 16:35:00
9:55 AM,44.6,35.6,71,30.06,10.0,SSE,4.6,-,N/A,,Overcast,150,2012-11-18 16:55:00
10:15 AM,44.6,37.4,76,30.06,10.0,SSE,6.9,-,N/A,,Overcast,150,2012-11-18 17:15:00
10:35 AM,42.8,37.4,81,30.08,7.0,Calm,Calm,-,N/A,,Overcast,0,2012-11-18 17:35:00
10:55 AM,44.6,37.4,76,30.07,7.0,SSE,4.6,-,N/A,,Overcast,150,2012-11-18 17:55:00
11:15 AM,44.6,37.4,76,30.07,10.0,SSE,4.6,-,N/A,,Overcast,160,2012-11-18 18:15:00
11:35 AM,44.6,37.4,76,30.07,10.0,SW,4.6,-,N/A,,Overcast,230,2012-11-18 18:35:00
11:55 AM,46.4,35.6,66,30.06,10.0,SSW,4.6,-,N/A,,Drizzle,210,2012-11-18 18:55:00
12:15 PM,46.4,35.6,66,30.06,10.0,WSW,3.5,-,N/A,Rain,Light Rain,250,2012-11-18 19:15:00
12:55 PM,44.6,37.4,76,30.05,10.0,WSW,5.8,-,N/A,Rain,Light Rain,240,2012-11-18 19:55:00
1:15 PM,46.4,37.4,71,30.05,10.0,West,6.9,-,N/A,,Light Drizzle,260,2012-11-18 20:15:00
1:35 PM,46.4,37.4,71,30.05,10.0,SSW,3.5,-,N/A,,Overcast,200,2012-11-18 20:35:00
1:55 PM,46.4,35.6,66,30.05,10.0,SW,12.7,-,N/A,Rain,Light Rain,220,2012-11-18 20:55:00
2:15 PM,46.4,35.6,66,30.04,10.0,SSE,8.1,-,N/A,,Overcast,160,2012-11-18 21:15:00
2:35 PM,46.4,33.8,62,30.04,10.0,Calm,Calm,-,N/A,,Drizzle,0,2012-11-18 21:35:00
2:55 PM,46.4,35.6,66,30.05,7.0,South,3.5,9.2,N/A,,Drizzle,170,2012-11-18 21:55:00
3:15 PM,46.4,33.8,62,30.05,10.0,ESE,4.6,-,N/A,,Overcast,120,2012-11-18 22:15:00
3:55 PM,46.4,35.6,66,30.06,10.0,SSW,8.1,-,N/A,,Overcast,210,2012-11-18 22:55:00
4:15 PM,42.8,35.6,76,30.08,7.0,South,12.7,19.6,N/A,,Light Drizzle,190,2012-11-18 23:15:00
4:35 PM,42.8,35.6,76,30.09,5.0,SSW,10.4,19.6,N/A,,Overcast,200,2012-11-18 23:35:00
4:55 PM,42.8,35.6,76,30.10,10.0,SW,15.0,19.6,N/A,,Overcast,220,2012-11-18 23:55:00
5:15 PM,41.0,35.6,81,30.10,7.0,South,15.0,20.7,N/A,,Overcast,190,2012-11-19 00:15:00
5:55 PM,39.2,35.6,87,30.11,10.0,East,5.8,-,N/A,,Overcast,90,2012-11-19 00:55:00
6:15 PM,39.2,35.6,87,30.11,10.0,NW,4.6,-,N/A,,Overcast,320,2012-11-19 01:15:00
6:35 PM,37.4,35.6,93,30.11,10.0,Calm,Calm,-,N/A,,Mostly Cloudy,0,2012-11-19 01:35:00
6:55 PM,37.4,35.6,93,30.11,10.0,Calm,Calm,-,N/A,,Mostly Cloudy,0,2012-11-19 01:55:00
7:15 PM,37.4,33.8,87,30.12,10.0,ESE,3.5,-,N/A,,Overcast,110,2012-11-19 02:15:00
7:35 PM,35.6,35.6,100,30.12,10.0,SSE,3.5,-,N/A,,Overcast,160,2012-11-19 02:35:00
7:55 PM,37.4,35.6,93,30.12,10.0,East,4.6,-,N/A,,Overcast,100,2012-11-19 02:55:00
8:15 PM,37.4,35.6,93,30.13,10.0,Calm,Calm,-,N/A,,Overcast,0,2012-11-19 03:15:00
8:35 PM,37.4,35.6,93,30.13,10.0,SE,3.5,-,N/A,,Overcast,130,2012-11-19 03:35:00
8:55 PM,37.4,35.6,93,30.14,10.0,Calm,Calm,-,N/A,,Overcast,0,2012-11-19 03:55:00
9:15 PM,37.4,35.6,93,30.15,10.0,Calm,Calm,-,N/A,,Overcast,0,2012-11-19 04:15:00
9:35 PM,35.6,33.8,93,30.15,10.0,SE,3.5,-,N/A,,Overcast,130,2012-11-19 04:35:00
9:55 PM,37.4,35.6,93,30.15,10.0,Calm,Calm,-,N/A,,Overcast,0,2012-11-19 04:55:00
10:15 PM,37.4,35.6,93,30.15,10.0,Calm,Calm,-,N/A,,Overcast,0,2012-11-19 05:15:00
10:55 PM,35.6,35.6,100,30.16,10.0,Calm,Calm,-,N/A,,Overcast,0,2012-11-19 05:55:00
11:15 PM,37.4,35.6,93,30.16,10.0,Calm,Calm,-,N/A,,Overcast,0,2012-11-19 06:15:00
11:55 PM,35.6,33.8,93,30.16,10.0,Calm,Calm,-,N/A,,Scattered Clouds,0,2012-11-19 06:55:00